Weather History for Duluth, MN

Change the Weather History Date:

Tuesday, November 8, 2011

  Actual Average Record
Temperature  
Mean Temperature 34 °F 33 °F  
Max Temperature 46 °F 40 °F 69 °F (1999)
Min Temperature 22 °F 26 °F -5 °F (2003)
Degree Days  
Heating Degree Days 31 32  
Month to date heating degree days 195 244  
Since 1 July heating degree days 1047 1369  
Cooling Degree Days 0 0  
Month to date cooling degree days 0 0  
Year to date cooling degree days 314 204  
Moisture  
Dew Point 22 °F    
Average Humidity 63    
Maximum Humidity 88    
Minimum Humidity 37    
Precipitation  
Precipitation 0.00 in 0.07 in 1.83 in (1932)
Month to date precipitation 0.04 0.59  
Year to date precipitation 24.95 28.25  
Snow  
Snow 0.00 in 0.30 in 6.80 in (1943)
Month to date snowfall 0.0 2.3  
Since 1 July snowfall T 4.7  
Since 1 September snowfall T 4.7  
Snow Depth 0.00 in    
Sea Level Pressure  
Sea Level Pressure 30.21 in    
Wind  
Wind Speed 3 mph (NNW)    
Max Wind Speed 9 mph    
Max Gust Speed 14 mph    
Visibility 10 miles    
Events      
T = Trace of Precipitation, MM = Missing Value Source: NWS Daily Summary

Daily Weather History Graph

Daily Weather History Graph

Search for Another Location

Airport:

Trip Planner

Search our weather history database for the weather conditions in past years. The results will help you decide how hot, cold, wet, or windy it might be!

Date:

Astronomy

Nov. 08, 2011 Rise Set
Actual Time 7:01 AM CST 4:43 PM CST
Civil Twilight 6:28 AM CST 5:15 PM CST
Nautical Twilight 5:52 AM CST 5:51 PM CST
Astronomical Twilight 5:16 AM CST 6:27 PM CST
Moon 3:26 PM CST (11/8) 4:56 AM CST (11/8)
Length of Visible Light 10h 46m
Length of Day
9h 42m
Waxing Gibbous, 96% of the Moon is Illuminated
Nov 8
Waxing Gibbous
Nov 10
Full
Nov 18
Last Quarter
Nov 25
New
Dec 2
First Quarter

Hourly Weather History & Observations

Time (CST) Temp. Windchill Dew Point Humidity Pressure Visibility Wind Dir Wind Speed Gust Speed Precip Events Conditions
12:55 AM 26.1 °F 19.4 °F 19.9 °F 78% 30.22 in 10.0 mi WSW 5.8 mph - N/A   Clear
1:55 AM 26.1 °F 19.4 °F 19.9 °F 78% 30.23 in 10.0 mi WSW 5.8 mph - N/A   Clear
2:55 AM 24.8 °F 19.1 °F 19.4 °F 80% 30.19 in 10.0 mi WSW 4.6 mph - N/A   Clear
3:55 AM 26.6 °F 22.6 °F 21.2 °F 80% 30.17 in 10.0 mi West 3.5 mph - N/A   Clear
4:55 AM 25.0 °F - 21.9 °F 88% 30.24 in 10.0 mi Calm Calm - N/A   Partly Cloudy
5:55 AM 27.0 °F - 21.9 °F 81% 30.25 in 10.0 mi Calm Calm - N/A   Partly Cloudy
6:55 AM 26.1 °F 21.9 °F 21.9 °F 84% 30.25 in 10.0 mi NNW 3.5 mph - N/A   Partly Cloudy
7:55 AM 28.9 °F 23.9 °F 24.1 °F 82% 30.25 in 10.0 mi North 4.6 mph - N/A   Clear
8:55 AM 33.1 °F 30.0 °F 26.1 °F 75% 30.25 in 10.0 mi North 3.5 mph - N/A   Clear
9:55 AM 37.9 °F - 27.0 °F 65% 30.25 in 10.0 mi Calm Calm - N/A   Partly Cloudy
10:55 AM 42.1 °F 38.4 °F 24.1 °F 49% 30.24 in 10.0 mi WNW 5.8 mph - N/A   Clear
11:55 AM 44.1 °F 40.8 °F 21.9 °F 42% 30.23 in 10.0 mi NNW 5.8 mph - N/A   Clear
12:55 PM 44.6 °F 40.7 °F 21.2 °F 39% 30.16 in 10.0 mi North 6.9 mph - N/A   Clear
1:55 PM 45.0 °F 41.8 °F 21.0 °F 39% 30.20 in 10.0 mi North 5.8 mph - N/A   Clear
2:55 PM 44.6 °F 42.2 °F 19.4 °F 37% 30.13 in 10.0 mi North 4.6 mph - N/A   Clear
4:55 PM 41.0 °F - 19.0 °F 41% 30.20 in 10.0 mi Calm Calm - N/A   Clear
5:55 PM 34.0 °F - 21.9 °F 61% 30.22 in 10.0 mi Calm Calm - N/A   Clear
6:55 PM 33.1 °F - 23.0 °F 66% 30.22 in 10.0 mi Calm Calm - N/A   Clear
7:55 PM 28.0 °F - 21.0 °F 75% 30.22 in 10.0 mi Calm Calm - N/A   Clear
8:55 PM 34.0 °F 29.8 °F 24.1 °F 67% 30.21 in 10.0 mi SE 4.6 mph - N/A   Clear
9:55 PM 30.9 °F 27.5 °F 24.1 °F 76% 30.21 in 10.0 mi ESE 3.5 mph - N/A   Clear
10:55 PM 32.0 °F 28.7 °F 24.1 °F 73% 30.20 in 10.0 mi ESE 3.5 mph - N/A   Clear
11:55 PM 30.0 °F - 24.1 °F 79% 30.20 in 10.0 mi Calm Calm - N/A   Clear